Regional Weather Roundup
Issued by NWS Portland, ME

Home | Current Version | Previous Version | Text Only | Print | Product List | Glossary On
Versions: 1 2 3 4 5 6 7 8 9 10 11 12 13 14 15 16 17 18 19 20 21 22 23 24 25 26 27 28 29 30 31 32 33 34 35 36 37 38 39 40 41 42 43 44 45 46 47 48 49 50
284
ASUS41 KGYX 290510
RWRGYX
WEATHER ROUNDUP FOR MAINE AND NEW HAMPSHIRE
NATIONAL WEATHER SERVICE GRAY ME
100 AM EDT FRI APR 29 2016

MEZ002-005-006-010-012-015-018-020-021-024-026-027-029-290600-
MAINE

CITY           SKY/WX    TMP DP  RH WIND       PRES   REMARKS
PORTLAND       CLEAR     38  23  55 N10       30.17R
SANFORD        CLEAR     30  27  86 N3        30.15R
BAR HARBOR     CLEAR     31  18  58 N5        30.20R
WISCASSET      CLEAR     34  25  69 CALM      30.19R
ROCKLAND       PTCLDY    39  17  41 NE13G20   30.18R
FRYEBURG       CLEAR     32  16  51 N5        30.17R
LEWISTONAUBURN PTCLDY    37  12  35 NE8       30.17S
AUGUSTA        CLEAR     34  13  41 N7        30.18S
WATERVILLE     PTCLDY    32  16  51 N6        30.16R
BANGOR         PTCLDY    34  13  41 NE5       30.20R
GREENVILLE       N/A     27  11  51 N8        30.11S
MILLINOCKET    CLEAR     25  13  60 CALM      30.20R
HOULTON        PTCLDY    23  10  57 S3        30.16S
PRESQUE ISLE   CLEAR     22  13  68 SW3       30.17R
FRENCHVILLE    CLEAR     24   8  50 NW7       30.12S
CARIBOU        CLEAR     23   9  55 W5        30.14S
$$

NHZ002-005-008-009-011-012-014-290600-
NEW HAMPSHIRE

CITY           SKY/WX    TMP DP  RH WIND       PRES   REMARKS
PORTSMOUTH     CLEAR     42  37  83 NE6       30.12R
ROCHESTER      CLEAR     36  30  79 N5        30.13R
NASHUA         MOCLDY    43  30  60 CALM      30.11R
MANCHESTER     MOCLDY    42  32  67 N8        30.10R
CONCORD        CLEAR     39  29  67 NE6       30.12R
LACONIA        CLEAR     39  27  60 NE6       30.15R
PLYMOUTH       FAIR      30  26  86 CALM      30.15R
BERLIN         CLEAR     23  15  71 CALM      30.15S
WHITEFIELD     CLEAR     28  16  60 N3        30.13F
JAFFREY        MOCLDY    41  28  60 CALM      30.08S
KEENE          CLOUDY    45  25  45 N8        30.09F
LEBANON        PTCLDY    36  20  52 NE3       30.14R
MT WASHINGTON  PTCLDY    19  -4  35 W16         N/A  WCI   5
$$

VTZ005-007-008-290600-
VERMONT

CITY           SKY/WX    TMP DP  RH WIND       PRES   REMARKS
ST JOHNSBURY     N/A     30  18  60 MISG      30.15R
MONTPELIER     FAIR      29  16  58 CALM      30.17S
BURLINGTON     FAIR      34  18  52 NE3       30.15S
$$

MAZ007-012-024-CTZ003-RIZ002-NYZ038-NYZ072-290600-
SOUTHERN NEW ENGLAND AND NY

CITY           SKY/WX    TMP DP  RH WIND       PRES   REMARKS
BOSTON         CLOUDY    46  34  62 SE7       30.11S
WORCESTER      CLOUDY    43  30  60 SE3       30.07S
NANTUCKET      CLOUDY    45  35  68 E5        30.11S
PROVIDENCE     LGT RAIN  45  34  65 SE5       30.10S
HARTFORD       CLOUDY    47  36  65 S9        30.06S
ALBANY         MOCLDY    40  18  41 N14       30.09R
NEW YORK CITY  CLOUDY    49  38  65 CALM      30.06R
$$

ANZ081-ANZ082-ANZ150-NHZ014-MEZ023>029-290600-
COASTAL MARINE OBSERVATIONS

STATION/POSITION TIME  TEMP    WIND        PRES    WAVE
                       AIR SEA DIR/SP/G            HT/PER
                 (UTC) (F)     (DEG/KT/KT) (MB)    (FT/S)
MOUNT DESERT ROC 0500   40      20/ 21/ 22 1021.7R
MATINICUS ROCK   0500   41      50/  3/  4 1021.2R
ISLE OF SHOALS   0500   44     140/ 13/ 14 1019.4R
CASHES LEDGE BUO 0450   43 44  170/  2/  4 1020.8R   3/ 7
GEORGES BANK BUO 0350   43 45              1019.7    4/ 8
$$

.............KEY..............
   WCI - WIND CHILL
   TC  - TEMPERATURE IN CELSIUS
   VSB - VISIBILITY IN MILES
   HX  - HEAT INDEX
   FAIR- INDICATES FEW OR NO CLOUDS BELOW 12,000 FT, WITH NO
         SIGNIFICANT WEATHER AND/OR OBSTRUCTIONS TO VISIBILITY.






USA.gov is the U.S. government's official web portal to all federal, state and local government web resources and services.